Date String (YYYY-MM-DD hh:mm:ss) UTC,Instrument flags,absolute air pressure of the measurement (hPa),sample flow rate (lpm),inlet stack bypass flow (lpm),air temperature of the measurement (°C),ambient temperature measured by the external sensor (°C),aerosol sample conditioner tube jacket temperature (°C),OPC LED temperature (°C),internal box temperature (°C),relative humidity of the measurement (%),span deviation,mass concentration of particles derived from Lorenz-Mie calculation of OPC scattering (μg/m³),mass concentration of particles derived from Lorenz-Mie calculation of OPC scattering (μg/m³),mass concentration of particles derived from Lorenz-Mie calculation of OPC scattering (μg/m³)
DateTimeUTC,F1_M11,P_M11,Q1_M11,Q2_M11,T1_M11,T2_M11,T3_M11,T4_M11,T5_M11,U1_M11,ZSPAN_M11,X0_M11,X2_M11,X1_M11
2023-07-02 15:00:00,SystemResetWarning,0832.9,5.00,000.00,029.1,026.5,000.0,037.7,030.6,32.0,0001.6,0010.86,0004.96,0004.45
2023-07-02 15:01:00,SystemResetWarning,0832.9,4.99,000.00,029.1,026.8,000.0,037.7,030.7,31.7,0001.4,0011.19,0005.02,0004.47
2023-07-02 15:02:00,SystemResetWarning,0832.9,4.99,000.00,029.1,027.1,000.0,037.7,030.7,31.1,0001.4,0010.74,0005.03,0004.47
2023-07-02 15:03:00,SystemResetWarning,0832.9,5.00,000.00,029.2,027.3,000.0,037.7,030.8,31.1,0001.8,0010.61,0005.03,0004.48
2023-07-02 15:04:00,SystemResetWarning,0833.1,5.00,000.00,029.2,027.5,000.0,037.7,030.8,31.6,0001.7,0011.03,0005.06,0004.49
2023-07-02 15:05:00,SystemResetWarning,0833.1,5.02,000.00,029.2,027.7,000.0,037.8,030.9,31.7,0001.1,0011.16,0005.09,0004.51
2023-07-02 15:06:00,SystemResetWarning,0832.9,4.99,000.00,029.2,027.9,000.0,037.8,030.9,33.2,0001.1,0011.62,0005.10,0004.53
2023-07-02 15:07:00,SystemResetWarning,0832.9,4.99,000.00,029.3,028.0,000.0,037.8,030.9,31.7,0001.0,0011.36,0005.11,0004.53
2023-07-02 15:08:00,SystemResetWarning,0832.9,5.00,000.00,029.3,028.1,000.0,037.8,031.0,30.7,0000.9,0011.78,0005.13,0004.55
2023-07-02 15:09:00,SystemResetWarning,0832.9,5.01,000.00,029.3,028.2,000.0,037.8,031.0,30.2,0000.5,0012.16,0005.16,0004.56
2023-07-02 15:10:00,SystemResetWarning,0832.9,5.01,000.00,029.4,027.7,000.0,037.8,031.0,30.8,-000.7,0012.37,0005.16,0004.57
2023-07-02 15:11:00,SystemResetWarning,0832.9,4.98,000.00,029.3,026.0,000.0,037.7,030.8,32.6,-001.4,0012.28,0005.15,0004.57
2023-07-02 15:12:00,SystemResetWarning,0833.1,5.01,000.00,029.3,024.8,000.0,037.5,030.6,33.2,-000.7,0011.96,0005.12,0004.58
2023-07-02 15:13:00,SystemResetWarning,0833.4,5.01,000.00,029.2,024.8,000.0,037.5,030.3,33.9,-000.4,0012.17,0005.14,0004.58
2023-07-02 15:14:00,SystemResetWarning,0833.3,5.00,000.00,029.1,025.1,000.0,037.6,030.2,33.8,-000.5,0012.16,0005.20,0004.60
2023-07-02 15:15:00,SystemResetWarning,0833.3,5.00,000.00,029.0,025.6,000.0,037.6,030.3,32.9,-000.1,0011.80,0005.22,0004.61
2023-07-02 15:16:00,SystemResetWarning,0833.3,5.00,000.00,029.0,026.0,000.0,037.6,030.4,32.1,-000.6,0012.36,0005.23,0004.62
2023-07-02 15:17:00,SystemResetWarning,0833.4,5.00,000.00,029.0,026.4,000.0,037.6,030.5,31.0,-000.2,0013.20,0005.30,0004.63
2023-07-02 15:18:00,SystemResetWarning,0833.4,5.00,000.00,029.0,026.8,000.0,037.6,030.5,30.9,-000.1,0013.06,0005.31,0004.62
2023-07-02 15:19:00,SystemResetWarning,0833.3,4.99,000.00,029.0,027.0,000.0,037.6,030.6,31.4,-000.4,0013.05,0005.29,0004.62
2023-07-02 15:20:00,SystemResetWarning,0833.4,5.00,000.00,029.0,027.3,000.0,037.6,030.7,31.9,-000.2,0012.75,0005.27,0004.60
2023-07-02 15:21:00,SystemResetWarning,0833.4,5.00,000.00,029.1,027.5,000.0,037.6,030.7,32.0,0000.6,0012.25,0005.29,0004.60
2023-07-02 15:22:00,SystemResetWarning,0833.5,5.00,000.00,029.1,027.6,000.0,037.6,030.8,32.0,0000.9,0012.74,0005.29,0004.60
2023-07-02 15:23:00,SystemResetWarning,0833.1,5.01,000.00,029.1,027.8,000.0,037.6,030.8,30.6,0000.8,0012.90,0005.31,0004.60
2023-07-02 15:24:00,SystemResetWarning,0832.9,5.00,000.00,029.2,027.9,000.0,037.7,030.9,31.3,0000.3,0013.24,0005.28,0004.61
2023-07-02 15:25:00,SystemResetWarning,0832.9,5.00,000.00,029.2,028.0,000.0,037.7,030.9,30.0,0000.8,0013.58,0005.24,0004.61
2023-07-02 15:26:00,SystemResetWarning,0832.9,5.00,000.00,029.2,028.1,000.0,037.7,030.9,30.3,0001.6,0014.10,0005.26,0004.60
2023-07-02 15:27:00,SystemResetWarning,0832.9,5.00,000.00,029.3,027.8,000.0,037.7,031.0,30.4,0001.6,0013.64,0005.25,0004.58
2023-07-02 15:28:00,SystemResetWarning,0833.3,4.99,000.00,029.3,026.3,000.0,037.6,030.8,30.1,0001.7,0012.80,0005.17,0004.56
2023-07-02 15:29:00,SystemResetWarning,0833.3,5.01,000.00,029.2,025.8,000.0,037.5,030.7,29.8,0001.3,0012.77,0005.15,0004.56
2023-07-02 15:30:00,SystemResetWarning,0833.0,5.01,000.00,029.1,025.9,000.0,037.5,030.5,29.6,0002.1,0012.21,0005.15,0004.56
2023-07-02 15:31:00,SystemResetWarning,0833.3,5.00,000.00,029.1,026.3,000.0,037.6,030.5,30.1,0001.5,0012.16,0005.14,0004.57
2023-07-02 15:32:00,SystemResetWarning,0833.1,5.01,000.00,029.1,026.6,000.0,037.6,030.6,32.0,0001.0,0011.98,0005.09,0004.56
2023-07-02 15:33:00,SystemResetWarning,0833.0,4.99,000.00,029.1,026.9,000.0,037.6,030.7,32.0,0000.4,0012.19,0005.07,0004.54
2023-07-02 15:34:00,SystemResetWarning,0833.1,4.99,000.00,029.1,027.2,000.0,037.6,030.7,30.9,0000.0,0012.39,0005.03,0004.53
2023-07-02 15:35:00,SystemResetWarning,0833.2,5.01,000.00,029.1,027.4,000.0,037.6,030.8,31.3,0000.0,0011.73,0005.03,0004.52
2023-07-02 15:36:00,SystemResetWarning,0833.4,5.01,000.00,029.2,027.6,000.0,037.7,030.8,30.6,0000.9,0011.35,0005.01,0004.49
2023-07-02 15:37:00,SystemResetWarning,0833.2,5.00,000.00,029.2,027.8,000.0,037.7,030.9,29.6,-000.2,0010.80,0004.94,0004.46
2023-07-02 15:38:00,SystemResetWarning,0833.3,4.99,000.00,029.2,027.9,000.0,037.7,030.9,29.3,-000.1,0010.46,0004.90,0004.47
2023-07-02 15:39:00,SystemResetWarning,0833.1,5.00,000.00,029.3,027.4,000.0,037.6,030.9,29.5,0000.2,0010.18,0004.90,0004.46
2023-07-02 15:40:00,SystemResetWarning,0832.8,5.01,000.00,029.2,025.8,000.0,037.5,030.6,29.3,0000.0,0010.42,0004.86,0004.44
2023-07-02 15:41:00,SystemResetWarning,0832.8,5.01,000.00,029.1,025.0,000.0,037.5,030.4,29.9,0000.1,0010.66,0004.84,0004.42
2023-07-02 15:42:00,SystemResetWarning,0832.8,5.02,000.00,029.0,025.2,000.0,037.5,030.3,31.0,0000.0,0010.59,0004.84,0004.41
2023-07-02 15:43:00,SystemResetWarning,0832.7,4.99,000.00,029.0,025.5,000.0,037.5,030.2,29.5,-000.1,0010.18,0004.85,0004.41
2023-07-02 15:44:00,SystemResetWarning,0832.8,5.00,000.00,028.9,026.0,000.0,037.5,030.3,28.1,-000.3,0009.83,0004.89,0004.41
2023-07-02 15:45:00,SystemResetWarning,0832.8,5.01,000.00,028.9,026.4,000.0,037.5,030.4,29.5,0000.3,0009.69,0004.88,0004.40
2023-07-02 15:46:00,SystemResetWarning,0832.8,4.99,000.00,029.0,026.7,000.0,037.5,030.5,29.6,0000.4,0009.65,0004.82,0004.39
2023-07-02 15:47:00,SystemResetWarning,0832.8,4.99,000.00,029.0,027.0,000.0,037.5,030.6,29.8,0000.2,0009.63,0004.83,0004.39
2023-07-02 15:48:00,SystemResetWarning,0832.8,5.00,000.00,029.0,027.3,000.0,037.5,030.6,29.5,0000.1,0009.54,0004.83,0004.39
2023-07-02 15:49:00,SystemResetWarning,0832.8,5.00,000.00,029.0,027.5,000.0,037.5,030.7,29.7,0000.2,0010.02,0004.85,0004.39
2023-07-02 15:50:00,SystemResetWarning,0832.8,5.00,000.00,029.1,027.7,000.0,037.6,030.7,30.0,0000.5,0010.17,0004.84,0004.38
2023-07-02 15:51:00,SystemResetWarning,0832.8,5.00,000.00,029.1,027.8,000.0,037.6,030.8,31.7,0000.7,0009.74,0004.85,0004.40
2023-07-02 15:52:00,SystemResetWarning,0832.8,5.00,000.00,029.2,027.7,000.0,037.6,030.8,30.9,0000.3,0009.49,0004.86,0004.41
2023-07-02 15:53:00,SystemResetWarning,0832.7,4.98,000.00,029.1,026.3,000.0,037.5,030.6,28.7,0000.3,0009.56,0004.86,0004.40
2023-07-02 15:54:00,SystemResetWarning,0832.8,5.00,000.00,029.1,025.1,000.0,037.4,030.4,29.4,0000.2,0009.56,0004.85,0004.41
2023-07-02 15:55:00,SystemResetWarning,0832.7,5.01,000.00,029.0,025.1,000.0,037.3,030.3,29.2,0000.5,0009.38,0004.86,0004.43
2023-07-02 15:56:00,SystemResetWarning,0832.7,5.01,000.00,028.9,025.5,000.0,037.4,030.2,29.2,0000.4,0008.96,0004.85,0004.44
2023-07-02 15:57:00,SystemResetWarning,0832.7,4.99,000.00,028.9,025.9,000.0,037.4,030.3,30.0,0000.7,0008.72,0004.84,0004.45
2023-07-02 15:58:00,SystemResetWarning,0832.8,5.00,000.00,028.9,026.3,000.0,037.4,030.4,31.2,0000.3,0009.04,0004.83,0004.47
2023-07-02 15:59:00,SystemResetWarning,0832.8,5.00,000.00,028.9,026.6,000.0,037.4,030.4,30.5,0000.0,0009.41,0004.84,0004.47
